Tracking 21094 objects as of 12-Aug-2020
HD Live streaming from Space Station
objects crossing your sky now
Track the most recent launched group of Starlink satellites

OPS 5805

Track OPS 5805 now!
OPS 5805 is classified as:


NORAD ID: 12093
Int'l Code: 1980-100A
Perigee: 1,739.8 km
Apogee: 38,570.4 km
Inclination: 63.5 °
Period: 716.6 minutes
Semi major axis: 26526 km
RCS: Unknown
Launch date: December 13, 1980
Source: United States (US)
Launch site: AIR FORCE WESTERN TEST RANGE (AFWTR)
aabbcc
Your satellite tracking list
Your tracking list is empty




NASA's NSSDC Master Catalog

Two Line Element Set (TLE):
1 12093U 80100A   20194.16152812 -.00001135  00000-0  00000+0 0  9996
2 12093  63.4831  81.2008 6942334 277.5777  14.8316  2.00952442  8687
Source of the keplerian elements: AFSPC